Regional Weather Roundup
Issued by NWS

Home | Current Version | Previous Version | Text Only | Print | Product List | Glossary Off
Versions: 1 2 3 4 5 6 7 8 9 10 11 12 13 14 15 16 17 18 19 20 21 22 23 24 25 26 27 28 29 30 31 32 33 34 35 36 37 38 39 40 41 42 43 44 45 46 47 48 49 50

000
ASUS45 KCYS 050410
RWRWY

WYOMING REGIONAL WEATHER ROUNDUP
NATIONAL WEATHER SERVICE CHEYENNE WY
900 PM MST WED MAR 04 2015

NOTE:  "FAIR" INDICATES FEW OR NO CLOUDS BELOW 12,000 FEET
WITH NO SIGNIFICANT WEATHER AND/OR OBSTRUCTIONS TO VISIBILITY.

WYZ001-050500-
YELLOWSTONE NATIONAL PARK

CITY           SKY/WX    TMP DP  RH WIND       PRES   REMARKS
LK YELLOWSTONE   N/A     -1  -8  72 NW3       30.16R
W YELLOWSTONE  NOT AVBL

$$
WYZ002>013-054>058-071-098>099-050500-
NORTHERN WYOMING

CITY           SKY/WX    TMP DP  RH WIND       PRES   REMARKS
JACKSON        FAIR       0  -4  85 N12       30.19R WCI -18
CODY           FAIR      16   5  62 SE15      30.06F WCI   1
GREYBULL       FAIR      15   5  64 E5        30.17S WCI   8
WORLAND        FAIR      14   3  61 VRB3      30.16R
SHERIDAN       FAIR       2  -5  72 S3        30.09F
BUFFALO        FAIR      15  -1  49 SW8       30.07F WCI   4
GILLETTE       FAIR       6   0  76 S9        30.11F WCI  -8
HULETT         FAIR       9   0  66 S10       30.13S WCI  -6
NEWCASTLE      FAIR       7  -2  66 CALM      30.17S

$$
WYZ014>020-022>026-101>103-050500-
CENTRAL WYOMING

CITY           SKY/WX    TMP DP  RH WIND       PRES   REMARKS
BIG PINEY      FAIR      15   2  56 N10       30.16R WCI   2
PINEDALE       FAIR       9  -2  61 NW12      30.16R WCI  -6
DUBOIS         FAIR      12  -4  48 N13       30.09R WCI  -3
LANDER         FAIR       3  -2  79 S3        30.12R
RIVERTON       FAIR       5  -2  72 S6        30.13R WCI  -6
CASPER         FAIR       5  -4  66 W10       30.12S WCI -10
DOUGLAS        FAIR      -3  -8  79 CALM      30.16R

$$
WYZ021-027>030-104>119-050500-
SOUTHERN WYOMING

CITY           SKY/WX    TMP DP  RH WIND       PRES   REMARKS
EVANSTON       FAIR      13   8  81 SW9       30.22R WCI   1
FORT BRIDGER   FAIR      17  10  74 SW10      30.24R WCI   5
ROCK SPRINGS   FAIR      16   6  65 W18       30.17R WCI   0
DIXON          FAIR      10   1  65 N3        30.24R
RAWLINS        FAIR      11   1  64 SW6       30.13R WCI   1
SARATOGA       FAIR       0  -6  78 SE7       30.15R WCI -13
LARAMIE        FAIR       0 -10  63 S3        30.07R
CHEYENNE       FAIR       6  -5  60 SW8       30.12R WCI  -7
TORRINGTON     FAIR      13   3  64 W6        30.20R WCI   4
PINE BLUFFS    FAIR      12   3  67 SW5       30.19R WCI   4

$$


USA.gov is the U.S. government's official web portal to all federal, state and local government web resources and services.